Location: Hopkins Observatory
(42.6965°N, 73.1843°W)
Time: 19:38:49
(UTC-04:00)

Amateur Radio Satellites - All Passes

Search period start: 30 October 2014 19:08
Search period end: 31 October 2014 19:08
Location: Hopkins Observatory, 42.6965°N, 73.1843°W

Satellite Date Start Highest point End Downlink Frequencies (MHz)
Time Altitude Azimuth
JAS-2 30 Oct 19:37:37 19:39:37 11° 279° (W) 19:41:41 435.800 - 435.900 CW/SSB, 435.910 FM
SO-67 30 Oct 19:56:58 19:59:40 21° 265° (W) 20:02:23 435.3500 MHz FM
KITSAT 1 30 Oct 20:14:32 20:22:40 83° 58° (ENE) 20:30:45 435.175 FM
RS-15 30 Oct 20:17:04 20:26:25 34° 106° (ESE) 20:35:41 29.354 - 29.394 USB, Beacon 29.352 USB
SO-50 30 Oct 20:17:54 20:22:47 86° 57° (ENE) 20:27:40 436.795 FM
OPAL 30 Oct 20:20:18 20:21:10 10° 306° (NW) 20:22:03 ?
HO-68 30 Oct 20:20:27 20:27:21 54° 67° (ENE) 20:34:17 435.675 MHz FM
UKube-1 30 Oct 20:30:48 20:33:26 16° 63° (ENE) 20:36:04 145.840 MHz, 145.915 MHz
STRAND 1 30 Oct 20:33:19 20:38:11 43° 291° (WNW) 20:43:00 ?
Oscar 11 30 Oct 21:05:08 21:08:56 31° 69° (ENE) 21:12:44 145.825 FM, Beacon 2401.500 USB
UOSAT-12 30 Oct 21:06:40 21:10:55 31° 46° (NE) 21:15:05 437.025 FM, 437.400 FM
FUNcube-1 30 Oct 21:20:18 21:23:40 21° 66° (ENE) 21:26:59 145.950 - 145.970 MHz USB
Oscar 10/S400 30 Oct 21:43:20 22:31:21 43° 210° (SSW) 04:56:06 145.825 - 145.975 CW/USB, Beacon 145.810 USB
SO-50 30 Oct 22:00:48 22:02:39 12° 253° (WSW) 22:04:31 436.795 FM
UKube-1 30 Oct 22:04:56 22:09:11 53° 259° (W) 22:13:29 145.840 MHz, 145.915 MHz
HO-68 30 Oct 22:09:09 22:15:19 31° 265° (W) 22:21:32 435.675 MHz FM
KITSAT 1 30 Oct 22:11:23 22:17:07 22° 257° (WSW) 22:22:50 435.175 FM
ZACube-1 30 Oct 22:12:05 22:16:37 71° 75° (ENE) 22:21:04 437.345 MHz
RS-15 30 Oct 22:26:58 22:37:54 70° 308° (NW) 22:48:52 29.354 - 29.394 USB, Beacon 29.352 USB
MaSat-1 30 Oct 22:30:30 22:34:25 79° 115° (ESE) 22:37:57 437.345 MHz
Oscar 11 30 Oct 22:41:36 22:45:07 24° 265° (W) 22:48:39 145.825 FM, Beacon 2401.500 USB
UOSAT-12 30 Oct 22:46:47 22:51:05 36° 245° (WSW) 22:55:18 437.025 FM, 437.400 FM
FUNcube-1 30 Oct 22:55:30 22:59:47 40° 262° (W) 23:04:00 145.950 - 145.970 MHz USB
ZACube-1 30 Oct 23:51:57 23:53:26 11° 271° (W) 23:54:55 437.345 MHz
RS-15 31 Oct 00:43:41 00:52:40 28° 337° (NNW) 01:01:48 29.354 - 29.394 USB, Beacon 29.352 USB
PCSat 31 Oct 01:07:05 01:08:22 11° 101° (ESE) 01:09:39 145.825 MHz
Oscar 19 31 Oct 01:25:14 01:28:48 19° 92° (E) 01:32:21 437.125 CW, 437.150 USB
JAS-1B 31 Oct 01:55:00 02:01:46 42° 99° (E) 02:09:42 435.800 - 435.900 CW/SSB
AO-27 31 Oct 02:00:16 02:03:31 17° 91° (E) 02:06:45 436.795 MHz FM
Oscar 16 31 Oct 02:11:09 02:16:10 51° 100° (E) 02:21:08 437.025 USB, Beacon 2401.1428
Gurwin Techsat 1B 31 Oct 02:13:39 02:15:16 11° 88° (E) 02:16:52 435.225 FM
Sapphire 31 Oct 02:23:58 02:29:10 51° 114° (ESE) 02:34:25 437.095 MHz 1200 baud AX-25 AFSK
Uribyol 2 31 Oct 02:43:05 02:48:03 43° 99° (E) 02:52:57 436.500 FM
PCSat 31 Oct 02:45:28 02:50:52 83° 118° (ESE) 02:56:20 145.825 MHz
AO-Echo 31 Oct 02:50:47 02:56:06 66° 101° (ESE) 03:01:20 ?
ITAMSAT 1 31 Oct 02:50:50 02:55:54 48° 99° (E) 03:00:54 435.822 SSB
RS-15 31 Oct 03:01:29 03:10:00 24° 13° (NNE) 03:18:42 29.354 - 29.394 USB, Beacon 29.352 USB
Oscar 19 31 Oct 03:03:29 03:08:28 54° 289° (WNW) 03:13:26 437.125 CW, 437.150 USB
AO-27 31 Oct 03:38:18 03:43:28 63° 288° (WNW) 03:48:36 436.795 MHz FM
JAS-1B 31 Oct 03:45:50 03:52:18 42° 293° (WNW) 03:59:54 435.800 - 435.900 CW/SSB
Gurwin Techsat 1B 31 Oct 03:50:35 03:55:56 89° 285° (WNW) 04:01:15 435.225 FM
Oscar 16 31 Oct 03:51:22 03:55:08 21° 297° (WNW) 03:58:55 437.025 USB, Beacon 2401.1428
TMSAT-1 31 Oct 03:57:18 04:02:39 79° 103° (ESE) 04:07:56 436.925 FM
Sapphire 31 Oct 04:08:16 04:12:51 27° 313° (NW) 04:17:29 437.095 MHz 1200 baud AX-25 AFSK
OPAL 31 Oct 04:16:07 04:20:23 28° 63° (ENE) 04:24:38 ?
Uribyol 2 31 Oct 04:23:04 04:27:16 25° 296° (WNW) 04:31:27 436.500 FM
AO-Echo 31 Oct 04:30:45 04:34:18 18° 299° (WNW) 04:37:50 ?
ITAMSAT 1 31 Oct 04:31:01 04:35:04 23° 297° (WNW) 04:39:06 435.822 SSB
PCSat 31 Oct 04:31:09 04:34:58 19° 319° (NW) 04:38:48 145.825 MHz
Uosat F 31 Oct 04:42:11 04:46:36 30° 96° (E) 04:50:59 435.120 FM
JAS-2 31 Oct 04:56:23 05:01:54 20° 87° (E) 05:07:17 435.800 - 435.900 CW/SSB, 435.910 FM
AO-7 31 Oct 04:56:50 05:05:00 55° 102° (ESE) 05:13:07 29.400 - 29.500 MHz
Saudisat 1A 31 Oct 05:08:14 05:11:14 18° 111° (ESE) 05:14:15 436.775 MHz
RS-15 31 Oct 05:14:58 05:25:47 52° 45° (NE) 05:36:59 29.354 - 29.394 USB, Beacon 29.352 USB
Gurwin Techsat 1B 31 Oct 05:32:42 05:35:07 13° 302° (WNW) 05:37:32 435.225 FM
TMSAT-1 31 Oct 05:38:56 05:41:53 15° 301° (WNW) 05:44:49 436.925 FM
OPAL 31 Oct 05:54:22 05:59:06 38° 260° (W) 06:03:50 ?
STRAND 1 31 Oct 06:11:10 06:15:52 38° 68° (ENE) 06:20:37 ?
Hamsat 31 Oct 06:11:31 06:15:23 34° 97° (E) 06:19:15 145.90 MHz
Uosat F 31 Oct 06:20:52 06:25:23 34° 293° (WNW) 06:29:53 435.120 FM
JAS-2 31 Oct 06:39:49 06:47:45 86° 286° (WNW) 06:55:25 435.800 - 435.900 CW/SSB, 435.910 FM
Saudisat 1A 31 Oct 06:46:09 06:50:25 50° 308° (NW) 06:54:44 436.775 MHz
AO-7 31 Oct 06:50:05 06:57:28 37° 302° (WNW) 07:04:51 29.400 - 29.500 MHz
SO-67 31 Oct 07:18:58 07:21:44 22° 95° (E) 07:24:28 435.3500 MHz FM
RS-15 31 Oct 07:27:35 07:38:15 53° 248° (WSW) 07:49:23 29.354 - 29.394 USB, Beacon 29.352 USB
Hamsat 31 Oct 07:47:55 07:51:08 22° 293° (WNW) 07:54:21 145.90 MHz
STRAND 1 31 Oct 07:50:48 07:55:08 27° 265° (W) 07:59:30 ?
MaSat-1 31 Oct 08:14:43 08:16:57 29° 249° (WSW) 08:19:04 437.345 MHz
JAS-2 31 Oct 08:26:17 08:31:40 21° 304° (NW) 08:37:01 435.800 - 435.900 CW/SSB, 435.910 FM
Saudisat 1A 31 Oct 08:30:42 08:31:02 10° 329° (NNW) 08:31:22 436.775 MHz
SO-67 31 Oct 08:51:56 08:54:36 21° 291° (WNW) 08:57:14 435.3500 MHz FM
Sapphire 31 Oct 09:30:01 09:31:34 11° 32° (NNE) 09:33:06 437.095 MHz 1200 baud AX-25 AFSK
HO-68 31 Oct 09:34:38 09:41:37 51° 101° (E) 09:48:33 435.675 MHz FM
PCSat 31 Oct 09:50:36 09:53:50 16° 38° (NE) 09:57:02 145.825 MHz
UKube-1 31 Oct 09:52:46 09:56:18 24° 95° (E) 09:59:48 145.840 MHz, 145.915 MHz
ZACube-1 31 Oct 10:02:45 10:04:22 12° 90° (E) 10:05:58 437.345 MHz
Oscar 11 31 Oct 10:27:24 10:31:39 56° 100° (E) 10:35:53 145.825 FM, Beacon 2401.500 USB
SO-50 31 Oct 10:34:30 10:38:00 23° 112° (ESE) 10:41:35 436.795 FM
ISS 31 Oct 10:41:05 10:44:23 76° 144° (SE) 10:47:43 145.800 FM
KITSAT 1 31 Oct 10:43:18 10:51:03 53° 113° (ESE) 10:58:49 435.175 FM
FUNcube-1 31 Oct 10:43:51 10:47:42 34° 97° (E) 10:51:29 145.950 - 145.970 MHz USB
Sapphire 31 Oct 11:11:05 11:16:22 48° 54° (NE) 11:21:36 437.095 MHz 1200 baud AX-25 AFSK
HO-68 31 Oct 11:22:46 11:29:03 34° 299° (WNW) 11:35:19 435.675 MHz FM
UKube-1 31 Oct 11:28:36 11:32:31 32° 291° (WNW) 11:36:23 145.840 MHz, 145.915 MHz
PCSat 31 Oct 11:32:43 11:38:11 77° 59° (ENE) 11:43:35 145.825 MHz
ZACube-1 31 Oct 11:37:01 11:41:10 58° 286° (WNW) 11:45:14 437.345 MHz
Oscar 16 31 Oct 11:53:52 11:55:27 11° 57° (ENE) 11:57:01 437.025 USB, Beacon 2401.1428
Oscar 11 31 Oct 12:04:59 12:07:22 15° 297° (WNW) 12:09:46 145.825 FM, Beacon 2401.500 USB
SO-50 31 Oct 12:13:57 12:18:16 44° 310° (NW) 12:22:44 436.795 FM
ISS 31 Oct 12:18:34 12:21:22 24° 343° (NNW) 12:24:11 145.800 FM
FUNcube-1 31 Oct 12:20:44 12:23:52 21° 294° (WNW) 12:26:58 145.950 - 145.970 MHz USB
Uribyol 2 31 Oct 12:27:47 12:28:15 10° 55° (NE) 12:28:43 436.500 FM
AO-Echo 31 Oct 12:29:22 12:31:23 12° 57° (ENE) 12:33:25 ?
ITAMSAT 1 31 Oct 12:34:33 12:36:06 11° 56° (NE) 12:37:39 435.822 SSB
KITSAT 1 31 Oct 12:39:07 12:46:39 41° 314° (NW) 12:54:14 435.175 FM
Oscar 19 31 Oct 12:42:38 12:47:04 30° 66° (ENE) 12:51:30 437.125 CW, 437.150 USB
JAS-1B 31 Oct 12:43:35 12:48:30 31° 64° (ENE) 12:53:28 435.800 - 435.900 CW/SSB
Sapphire 31 Oct 12:55:06 12:59:29 26° 252° (WSW) 13:03:52 437.095 MHz 1200 baud AX-25 AFSK
UOSAT-12 31 Oct 12:57:56 13:02:29 58° 119° (ESE) 13:07:07 437.025 FM, 437.400 FM
PCSat 31 Oct 13:17:53 13:20:54 15° 256° (WSW) 13:23:55 145.825 MHz
AO-27 31 Oct 13:18:46 13:23:10 28° 65° (ENE) 13:27:35 436.795 MHz FM
Oscar 16 31 Oct 13:28:48 13:33:57 81° 75° (ENE) 13:39:07 437.025 USB, Beacon 2401.1428
Saudisat 1A 31 Oct 13:33:01 13:36:32 22° 43° (NE) 13:40:02 436.775 MHz
Gurwin Techsat 1B 31 Oct 13:34:23 13:38:19 22° 62° (ENE) 13:42:15 435.225 FM
TMSAT-1 31 Oct 13:41:14 13:44:48 19° 61° (ENE) 13:48:23 436.925 FM
ISS 31 Oct 13:56:32 13:58:53 18° 3° (N) 14:01:14 145.800 FM
Uribyol 2 31 Oct 14:01:34 14:06:46 70° 73° (ENE) 14:11:59 436.500 FM
AO-Echo 31 Oct 14:04:18 14:09:18 88° 75° (ENE) 14:14:30 ?
AO-7 31 Oct 14:07:49 14:13:08 19° 48° (NE) 14:18:28 29.400 - 29.500 MHz
ITAMSAT 1 31 Oct 14:09:30 14:14:42 78° 74° (ENE) 14:19:58 435.822 SSB
Oscar 19 31 Oct 14:21:39 14:26:19 34° 263° (W) 14:30:59 437.125 CW, 437.150 USB
JAS-1B 31 Oct 14:33:57 14:39:10 35° 263° (W) 14:44:22 435.800 - 435.900 CW/SSB
UOSAT-12 31 Oct 14:39:18 14:42:59 22° 319° (NW) 14:46:43 437.025 FM, 437.400 FM
KITSAT 1 31 Oct 14:40:04 14:44:39 16° 341° (NNW) 14:49:14 435.175 FM
AO-27 31 Oct 14:57:40 15:02:30 38° 262° (W) 15:07:23 436.795 MHz FM
Oscar 16 31 Oct 15:11:51 15:13:54 12° 271° (W) 15:15:58 437.025 USB, Beacon 2401.1428
Saudisat 1A 31 Oct 15:12:04 15:16:22 50° 241° (WSW) 15:20:37 436.775 MHz
Gurwin Techsat 1B 31 Oct 15:12:42 15:17:52 54° 260° (W) 15:23:06 435.225 FM
TMSAT-1 31 Oct 15:18:57 15:24:12 64° 259° (WSW) 15:29:30 436.925 FM
ISS 31 Oct 15:33:13 15:36:18 34° 23° (NNE) 15:39:23 145.800 FM
Uribyol 2 31 Oct 15:43:51 15:46:44 15° 270° (W) 15:49:38 436.500 FM
AO-Echo 31 Oct 15:47:34 15:48:48 11° 273° (W) 15:50:02 ?
ITAMSAT 1 31 Oct 15:52:22 15:54:47 13° 271° (W) 15:57:13 435.822 SSB
Uosat F 31 Oct 15:56:02 16:00:48 45° 70° (ENE) 16:05:36 435.120 FM
AO-7 31 Oct 15:56:23 16:04:38 77° 69° (ENE) 16:12:55 29.400 - 29.500 MHz
KITSAT 1 31 Oct 16:40:17 16:44:12 14° 13° (NNE) 16:48:06 435.175 FM
JAS-2 31 Oct 16:52:20 16:58:22 47° 67° (ENE) 17:05:11 435.800 - 435.900 CW/SSB, 435.910 FM
Hamsat 31 Oct 17:05:47 17:09:18 27° 69° (ENE) 17:12:50 145.90 MHz
ISS 31 Oct 17:09:53 17:13:02 39° 221° (SW) 17:16:09 145.800 FM
Uosat F 31 Oct 17:35:54 17:39:47 22° 266° (W) 17:43:41 435.120 FM
AO-7 31 Oct 17:51:56 17:58:11 23° 268° (W) 18:04:29 29.400 - 29.500 MHz
OPAL 31 Oct 18:03:03 18:07:52 50° 102° (ESE) 18:12:40 ?
STRAND 1 31 Oct 18:23:16 18:24:55 11° 88° (E) 18:26:33 ?
KITSAT 1 31 Oct 18:35:32 18:42:39 33° 41° (NE) 18:49:44 435.175 FM
JAS-2 31 Oct 18:38:04 18:43:38 32° 268° (W) 18:49:51 435.800 - 435.900 CW/SSB, 435.910 FM
Hamsat 31 Oct 18:41:42 18:45:12 26° 265° (W) 18:48:43 145.90 MHz
